ACA044C KSFO-MMPR

Flight info

Callsign ACA044C
Flight time N/A
Altitude 37000
Route WESLA5 YYUNG DCT LAX DCT MZB J1 TIJ UT4 LMM UJ3 MZT J141 OBRUG OBRUG1B
Aircraft B738/M-SDE2E3FGHIRWXY/LB1

Departure

Time 2026-04-30 18:16
Airport San Francisco International Airport (KSFO)

Arrival

Time N/A
Airport Puerto Vallarta International Airport (MMPR)
Time Latitude Longitude Altitude Speed Heading
2026-04-30 17:39 37.61189 -122.38435 17 ft 0 kts 295°
2026-04-30 17:58 37.61176 -122.38411 19 ft 3 kts 345°
2026-04-30 17:59 37.61152 -122.38415 18 ft 0 kts 27°
2026-04-30 18:04 37.61156 -122.38412 17 ft 4 kts 28°
2026-04-30 18:05 37.61305 -122.38307 15 ft 9 kts 29°
2026-04-30 18:06 37.61346 -122.38189 14 ft 4 kts 66°
2026-04-30 18:07 37.61395 -122.38066 14 ft 5 kts 106°
2026-04-30 18:08 37.61325 -122.37891 15 ft 13 kts 117°
2026-04-30 18:09 37.61276 -122.37492 19 ft 11 kts 39°
2026-04-30 18:10 37.61531 -122.37293 23 ft 10 kts 52°
2026-04-30 18:11 37.61512 -122.37017 22 ft 0 kts 120°
2026-04-30 18:11 37.61355 -122.36751 19 ft 23 kts 121°
2026-04-30 18:12 37.61100 -122.36145 20 ft 16 kts 118°
2026-04-30 18:13 37.61078 -122.35932 21 ft 12 kts 46°
2026-04-30 18:13 37.61090 -122.35918 21 ft 0 kts 40°
2026-04-30 18:14 37.61100 -122.35908 21 ft 3 kts 40°
2026-04-30 18:15 37.61178 -122.35880 22 ft 5 kts 343°
2026-04-30 18:15 37.61195 -122.35902 21 ft 0 kts 299°
2026-04-30 18:16 37.61658 -122.37009 20 ft 139 kts 297°
2026-04-30 18:16 37.62832 -122.39763 815 ft 196 kts 298°
2026-04-30 18:17 37.63450 -122.41203 2035 ft 178 kts 297°
2026-04-30 18:17 37.64065 -122.42620 2668 ft 196 kts 299°
2026-04-30 18:17 37.65552 -122.46007 3261 ft 239 kts 300°
2026-04-30 18:18 37.66373 -122.47871 3858 ft 246 kts 300°
2026-04-30 18:18 37.66898 -122.49998 4365 ft 266 kts 271°
2026-04-30 18:18 37.66472 -122.52275 5088 ft 274 kts 241°
2026-04-30 18:18 37.65213 -122.54033 5879 ft 277 kts 212°
2026-04-30 18:19 37.63417 -122.54838 6703 ft 277 kts 182°
2026-04-30 18:19 37.61521 -122.54488 7436 ft 279 kts 160°
2026-04-30 18:19 37.59712 -122.53538 8155 ft 284 kts 154°
2026-04-30 18:19 37.57907 -122.52460 8886 ft 290 kts 154°
2026-04-30 18:20 37.56063 -122.51377 9603 ft 295 kts 155°
2026-04-30 18:20 37.54171 -122.50307 10312 ft 301 kts 155°
2026-04-30 18:20 37.52180 -122.49204 10573 ft 324 kts 156°
2026-04-30 18:20 37.50034 -122.48062 10767 ft 346 kts 161°
2026-04-30 18:21 37.47611 -122.47646 11190 ft 358 kts 184°
2026-04-30 18:21 37.45130 -122.48032 11849 ft 361 kts 188°
2026-04-30 18:21 37.42670 -122.48515 12943 ft 347 kts 189°
2026-04-30 18:21 37.40380 -122.48967 14522 ft 320 kts 188°
2026-04-30 18:22 37.38237 -122.49363 15472 ft 315 kts 189°
2026-04-30 18:22 37.33641 -122.50263 15861 ft 354 kts 189°
2026-04-30 18:22 37.31132 -122.50749 15997 ft 373 kts 189°
2026-04-30 18:23 37.28503 -122.51250 16215 ft 389 kts 189°
2026-04-30 18:23 37.25798 -122.51758 16679 ft 396 kts 189°
2026-04-30 18:23 37.23062 -122.52268 17272 ft 399 kts 189°
2026-04-30 18:23 37.20300 -122.52780 17851 ft 402 kts 189°
2026-04-30 18:24 37.14699 -122.53816 18892 ft 410 kts 189°
2026-04-30 18:24 37.11862 -122.54341 19414 ft 413 kts 189°
2026-04-30 18:24 37.09020 -122.54866 19947 ft 415 kts 189°
2026-04-30 18:25 37.06181 -122.55390 20449 ft 418 kts 189°
2026-04-30 18:25 37.00349 -122.55705 21388 ft 428 kts 167°
2026-04-30 18:25 36.97574 -122.54365 21857 ft 430 kts 150°
2026-04-30 18:26 36.92379 -122.50531 22755 ft 437 kts 148°
2026-04-30 18:26 36.89766 -122.48542 23172 ft 441 kts 148°
2026-04-30 18:26 36.87132 -122.46551 23622 ft 444 kts 148°
2026-04-30 18:27 36.81791 -122.42571 24367 ft 449 kts 149°
2026-04-30 18:27 36.79091 -122.40583 24726 ft 452 kts 149°
2026-04-30 18:28 36.73630 -122.36584 25441 ft 457 kts 149°
2026-04-30 18:28 36.70883 -122.34577 25793 ft 460 kts 149°
2026-04-30 18:28 36.65323 -122.30521 26464 ft 465 kts 149°
2026-04-30 18:29 36.62526 -122.28481 26794 ft 467 kts 149°
2026-04-30 18:29 36.54080 -122.22332 27728 ft 474 kts 150°
2026-04-30 18:30 36.49318 -122.18873 28225 ft 478 kts 150°
2026-04-30 18:30 36.42546 -122.13961 28915 ft 483 kts 150°
2026-04-30 18:31 36.39638 -122.11855 29202 ft 485 kts 150°
2026-04-30 18:31 36.33816 -122.07643 29742 ft 490 kts 150°
2026-04-30 18:32 36.27904 -122.03375 30242 ft 494 kts 150°
2026-04-30 18:32 36.24920 -122.01224 30470 ft 495 kts 150°
2026-04-30 18:32 36.18959 -121.96931 31055 ft 494 kts 150°
2026-04-30 18:33 36.15985 -121.94792 31368 ft 493 kts 150°
2026-04-30 18:33 36.10051 -121.90531 31917 ft 493 kts 150°
2026-04-30 18:33 36.07072 -121.88395 32195 ft 493 kts 150°
2026-04-30 18:34 36.04105 -121.86269 32493 ft 492 kts 150°
2026-04-30 18:34 35.98602 -121.81419 32998 ft 492 kts 129°
2026-04-30 18:34 35.97158 -121.79192 33188 ft 491 kts 127°
2026-04-30 18:35 35.94435 -121.74739 33558 ft 491 kts 126°
2026-04-30 18:35 35.92392 -121.71364 33797 ft 491 kts 126°
2026-04-30 18:35 35.90336 -121.67997 34048 ft 491 kts 126°
2026-04-30 18:36 35.86185 -121.61321 34529 ft 489 kts 127°
2026-04-30 18:36 35.84101 -121.58010 34765 ft 489 kts 127°
2026-04-30 18:36 35.80626 -121.52498 35044 ft 490 kts 127°
2026-04-30 18:37 35.77829 -121.48086 35395 ft 487 kts 127°
2026-04-30 18:37 35.76448 -121.45909 35566 ft 486 kts 127°
2026-04-30 18:37 35.74359 -121.42618 35761 ft 486 kts 127°
2026-04-30 18:37 35.72272 -121.39329 35920 ft 487 kts 127°
2026-04-30 18:38 35.70190 -121.36051 36103 ft 487 kts 127°
2026-04-30 18:38 35.68105 -121.32768 36324 ft 486 kts 127°
2026-04-30 18:38 35.66024 -121.29495 36522 ft 485 kts 127°
2026-04-30 18:38 35.63967 -121.26263 36691 ft 485 kts 127°
2026-04-30 18:39 35.61881 -121.22988 36855 ft 485 kts 127°
2026-04-30 18:39 35.59799 -121.19722 37032 ft 485 kts 127°
2026-04-30 18:39 35.57707 -121.16446 37055 ft 487 kts 127°
2026-04-30 18:40 35.53523 -121.09900 37062 ft 486 kts 127°
2026-04-30 18:40 35.49410 -121.03346 37063 ft 483 kts 125°
2026-04-30 18:41 35.45562 -120.96666 37053 ft 482 kts 124°
2026-04-30 18:41 35.41737 -120.89935 37046 ft 480 kts 124°
2026-04-30 18:42 35.37895 -120.83261 37037 ft 480 kts 124°
2026-04-30 18:42 35.32071 -120.73262 37023 ft 480 kts 124°
2026-04-30 18:45 35.10555 -120.36604 37032 ft 485 kts 124°
2026-04-30 18:46 35.06597 -120.29902 37031 ft 486 kts 124°
2026-04-30 18:46 35.02655 -120.23239 37025 ft 487 kts 124°
2026-04-30 18:47 34.98688 -120.16545 37014 ft 487 kts 124°
2026-04-30 18:47 34.94713 -120.09851 37009 ft 486 kts 124°
2026-04-30 18:48 34.90746 -120.03184 37005 ft 486 kts 124°
2026-04-30 18:48 34.86777 -119.96526 37011 ft 485 kts 124°
2026-04-30 18:49 34.82817 -119.89893 37011 ft 483 kts 124°
2026-04-30 18:49 34.78875 -119.83322 37001 ft 483 kts 124°
2026-04-30 18:50 34.74911 -119.76723 36998 ft 483 kts 124°
2026-04-30 18:50 34.70952 -119.70130 36996 ft 483 kts 124°
2026-04-30 18:51 34.66985 -119.63532 36995 ft 483 kts 124°
2026-04-30 18:51 34.63020 -119.56952 36994 ft 482 kts 124°
2026-04-30 18:52 34.59079 -119.50425 36992 ft 482 kts 124°
2026-04-30 18:52 34.55109 -119.43863 37001 ft 483 kts 124°
2026-04-30 18:53 34.51127 -119.37293 36990 ft 483 kts 124°
2026-04-30 18:53 34.47144 -119.30733 36996 ft 483 kts 124°
2026-04-30 18:54 34.43158 -119.24181 36991 ft 483 kts 124°
2026-04-30 18:54 34.39170 -119.17637 36981 ft 483 kts 124°